{"data":{"norad_id":57465,"intl_designator":"2023-107J","name":"STARLINK-30116","alt_names":[],"object_type":"PAYLOAD","status":"ACTIVE","operator":null,"country":"US","launch_date":"2023-07-28","launch_site_code":"AFETR","launch_vehicle":null,"mission":null,"orbit_class":"UNKNOWN","rcs_meters":null,"size_class":null,"mass_kg":null,"dimensions":null,"purposes":["comms"],"wikipedia_slug":null,"has_3d_model":false,"image_url":null,"decayed_at":null,"tle_current":{"epoch":"2026-05-25T01:09:11.524320Z","epoch_age_seconds":74203,"freshness":"FRESH","line1":"1 57465U 23107J   26145.04805005  .00002307  00000+0  93329-4 0  9991","line2":"2 57465  42.9974 265.0080 0000470   3.8757 356.2098 15.27571320156824","mean_motion":15.2757132,"eccentricity":4.7e-5,"inclination_deg":42.9974,"raan_deg":265.008,"arg_perigee_deg":3.8757,"mean_anomaly_deg":356.2098,"bstar":9.3329e-5,"rev_number":15682,"period_min":94.267284358284,"perigee_km":482.75261023724,"apogee_km":483.39756417344,"semimajor_km":6861.2120872053,"source":"CELESTRAK","updated_at":"2026-05-25T13:38:18.324538Z"}}}